Tappahannock, VA

7:26 PM EDT on March 25, 2017 (GMT -0400)
Tappahannock

Weather History for KXSA - November, 2013

Change the Weather History Date:

Thursday, November 14, 2013

  Actual Average (KOFP) Record (KOFP)
Temperature  
Mean Temperature 40 °F -  
Max Temperature 59 °F 58 °F 81 °F (1985)
Min Temperature 22 °F 34 °F 16 °F (1986)
Degree Days  
Heating Degree Days 24    
Moisture  
Dew Point 14 °F    
Average Humidity 42    
Maximum Humidity 85    
Minimum Humidity 10    
Precipitation  
Precipitation 0.00 in - - ()
Sea Level Pressure  
Sea Level Pressure 30.34 in    
Wind  
Wind Speed 3 mph (SSW)    
Max Wind Speed 9 mph    
Max Gust Speed -    
Visibility 10 miles    
Events      
Averages and records for this station are not official NWS values.
T = Trace of Precipitation, MM = Missing Value Source: NWS Daily Summary

Daily Weather History Graph

Daily Weather History Graph

Search for Another Location

Airport or City:

Trip Planner

Search our weather history database for the weather conditions in past years. The results will help you decide how hot, cold, wet, or windy it might be!

Date:

Astronomy

Nov. 14, 2013 Rise Set
Actual Time 6:47 AM EST 4:56 PM EST
Civil Twilight 6:19 AM EST 5:24 PM EST
Nautical Twilight 5:47 AM EST 5:56 PM EST
Astronomical Twilight 5:16 AM EST 6:27 PM EST
Moon 3:14 PM EST (11/14) 3:43 AM EST (11/14)
Length of Visible Light 11h 05m
Length of Day
10h 09m
Waxing Gibbous, 91% of the Moon is Illuminated
Nov 14
Waxing Gibbous
Nov 17
Full
Nov 25
Last Quarter
Dec 2
New
Dec 9
First Quarter

Hourly Weather History & Observations

Time (EST) Temp. Windchill Dew Point Humidity Pressure Visibility Wind Dir Wind Speed Gust Speed Precip Events Conditions
12:15 AM 25.0 °F - 18.9 °F 78% 30.42 in 10.0 mi Calm Calm - N/A   Clear
12:35 AM 23.9 °F - 18.0 °F 78% 30.42 in 10.0 mi Calm Calm - N/A   Clear
12:55 AM 23.5 °F - 18.1 °F 80% 30.41 in 10.0 mi Calm Calm - N/A   Clear
1:15 AM 23.0 °F - 18.7 °F 84% 30.41 in 10.0 mi Calm Calm - N/A   Clear
1:35 AM 23.4 °F 18.9 °F 18.5 °F 82% 30.41 in 10.0 mi South 3.5 mph - N/A   Clear
1:55 AM 22.1 °F 14.7 °F 18.1 °F 85% 30.39 in 10.0 mi SSW 5.8 mph - N/A   Clear
2:15 AM 26.8 °F 22.8 °F 16.9 °F 66% 30.39 in 10.0 mi South 3.5 mph - N/A   Clear
2:35 AM 24.1 °F - 17.4 °F 76% 30.39 in 10.0 mi Calm Calm - N/A   Clear
2:55 AM 23.2 °F 18.7 °F 17.8 °F 80% 30.39 in 10.0 mi South 3.5 mph - N/A   Clear
3:15 AM 26.4 °F 22.4 °F 16.7 °F 67% 30.38 in 10.0 mi SSW 3.5 mph - N/A   Clear
3:35 AM 23.9 °F - 17.1 °F 75% 30.37 in 10.0 mi Calm Calm - N/A   Clear
3:55 AM 26.1 °F - 16.7 °F 68% 30.37 in 10.0 mi Calm Calm - N/A   Clear
4:15 AM 27.3 °F 23.4 °F 17.2 °F 66% 30.38 in 10.0 mi SSW 3.5 mph - N/A   Clear
4:35 AM 27.1 °F 21.8 °F 17.4 °F 67% 30.37 in 10.0 mi SSW 4.6 mph - N/A   Clear
4:55 AM 27.1 °F 21.8 °F 17.6 °F 67% 30.37 in 10.0 mi South 4.6 mph - N/A   Clear
5:15 AM 27.5 °F 22.2 °F 17.2 °F 65% 30.37 in 10.0 mi SSW 4.6 mph - N/A   Clear
5:35 AM 27.5 °F 22.2 °F 16.7 °F 64% 30.38 in 10.0 mi SSW 4.6 mph - N/A   Clear
5:55 AM 27.7 °F 22.4 °F 16.5 °F 63% 30.37 in 10.0 mi SSW 4.6 mph - N/A   Clear
6:15 AM 28.4 °F - 15.6 °F 59% 30.38 in 10.0 mi Calm Calm - N/A   Clear
6:35 AM 25.3 °F - 17.1 °F 71% 30.38 in 10.0 mi Calm Calm - N/A   Clear
6:55 AM 24.8 °F - 17.8 °F 75% 30.38 in 10.0 mi Calm Calm - N/A   Clear
7:15 AM 26.6 °F 22.6 °F 16.5 °F 66% 30.39 in 10.0 mi SSW 3.5 mph - N/A   Clear
7:35 AM 29.5 °F - 17.8 °F 62% 30.39 in 10.0 mi Calm Calm - N/A   Clear
7:55 AM 30.9 °F 27.5 °F 18.0 °F 59% 30.39 in 10.0 mi South 3.5 mph - N/A   Clear
8:15 AM 32.4 °F 27.9 °F 17.8 °F 55% 30.39 in 10.0 mi South 4.6 mph - N/A   Clear
8:35 AM 34.5 °F 31.6 °F 18.0 °F 51% 30.39 in 10.0 mi South 3.5 mph - N/A   Clear
8:55 AM 37.4 °F 33.8 °F 17.1 °F 44% 30.39 in 10.0 mi South 4.6 mph - N/A   Clear
9:15 AM 39.6 °F 36.3 °F 14.7 °F 36% 30.39 in 10.0 mi South 4.6 mph - N/A   Clear
9:35 AM 41.5 °F 36.4 °F 12.7 °F 31% 30.39 in 10.0 mi South 8.1 mph - N/A   Clear
9:55 AM 43.7 °F 41.1 °F 12.2 °F 28% 30.39 in 10.0 mi SW 4.6 mph - N/A   Clear
10:15 AM 46.0 °F 41.9 °F 11.7 °F 25% 30.39 in 10.0 mi SSW 8.1 mph - N/A   Clear
10:35 AM 46.6 °F - 10.6 °F 23% 30.38 in 10.0 mi SSE 5.8 mph - N/A   Clear
10:55 AM 48.2 °F - 10.6 °F 22% 30.37 in 10.0 mi SSW 5.8 mph - N/A   Clear
11:15 AM 49.8 °F - 9.7 °F 20% 30.37 in 10.0 mi SSW 8.1 mph - N/A   Clear
11:35 AM 51.3 °F - 8.4 °F 18% 30.35 in 10.0 mi SW 5.8 mph - N/A   Clear
11:55 AM 52.5 °F - 6.4 °F 16% 30.34 in 10.0 mi SW 9.2 mph - N/A   Clear
12:15 PM 53.4 °F - 6.6 °F 15% 30.33 in 10.0 mi SSW 5.8 mph - N/A   Clear
12:35 PM 54.1 °F - 5.4 °F 14% 30.32 in 10.0 mi SSW 4.6 mph - N/A   Clear
12:55 PM 55.2 °F - 5.4 °F 13% 30.31 in 10.0 mi SSW 6.9 mph - N/A   Clear
1:15 PM 55.8 °F - 5.5 °F 13% 30.31 in 10.0 mi WSW 6.9 mph - N/A   Clear
1:35 PM 57.4 °F - 3.7 °F 12% 30.30 in 10.0 mi South 4.6 mph - N/A   Clear
1:55 PM 57.6 °F - 2.5 °F 11% 30.30 in 10.0 mi SSW 8.1 mph - N/A   Clear
2:15 PM 58.3 °F - 1.9 °F 10% 30.29 in 10.0 mi WSW 9.2 mph - N/A   Clear
2:35 PM 59.0 °F - 2.8 °F 10% 30.29 in 10.0 mi SW 4.6 mph - N/A   Clear
2:55 PM 58.6 °F - 2.3 °F 10% 30.29 in 10.0 mi SSW 6.9 mph - N/A   Clear
3:15 PM 59.0 °F - 2.3 °F 10% 30.29 in 10.0 mi SW 6.9 mph - N/A   Clear
3:35 PM 59.0 °F - 2.1 °F 10% 30.29 in 10.0 mi SSW 6.9 mph - N/A   Clear
3:55 PM 58.5 °F - 2.1 °F 10% 30.28 in 10.0 mi South 3.5 mph - N/A   Clear
4:15 PM 57.9 °F - 4.1 °F 12% 30.28 in 10.0 mi Calm Calm - N/A   Clear
4:35 PM 56.5 °F - 7.0 °F 14% 30.28 in 10.0 mi Calm Calm - N/A   Clear
4:55 PM 51.8 °F - 12.6 °F 21% 30.28 in 10.0 mi Calm Calm - N/A   Clear
5:15 PM 47.3 °F - 15.3 °F 28% 30.28 in 10.0 mi SSE 3.5 mph - N/A   Clear
5:35 PM 46.4 °F 45.2 °F 14.9 °F 28% 30.29 in 10.0 mi South 3.5 mph - N/A   Clear
5:55 PM 46.2 °F 45.0 °F 15.3 °F 29% 30.29 in 10.0 mi South 3.5 mph - N/A   Clear
6:15 PM 48.2 °F - 13.6 °F 25% 30.28 in 10.0 mi Calm Calm - N/A   Clear
6:35 PM 44.6 °F 43.1 °F 16.3 °F 32% 30.29 in 10.0 mi South 3.5 mph - N/A   Clear
6:55 PM 47.5 °F - 13.3 °F 25% 30.29 in 10.0 mi South 3.5 mph - N/A   Clear
7:15 PM 44.6 °F 42.2 °F 15.6 °F 31% 30.28 in 10.0 mi South 4.6 mph - N/A   Clear
7:35 PM 43.9 °F 42.3 °F 16.2 °F 33% 30.29 in 10.0 mi South 3.5 mph - N/A   Clear
7:55 PM 44.2 °F 42.7 °F 16.0 °F 32% 30.29 in 10.0 mi South 3.5 mph - N/A   Clear
8:15 PM 42.1 °F 40.2 °F 18.5 °F 39% 30.29 in 10.0 mi South 3.5 mph - N/A   Clear
8:35 PM 42.4 °F 40.7 °F 18.0 °F 37% 30.29 in 10.0 mi South 3.5 mph - N/A   Clear
8:55 PM 43.2 °F 40.5 °F 17.4 °F 36% 30.29 in 10.0 mi South 4.6 mph - N/A   Clear
9:15 PM 42.8 °F 40.1 °F 18.3 °F 37% 30.29 in 10.0 mi South 4.6 mph - N/A   Clear
9:35 PM 42.4 °F 39.6 °F 18.7 °F 39% 30.28 in 10.0 mi South 4.6 mph - N/A   Clear
9:55 PM 42.1 °F 39.2 °F 19.0 °F 40% 30.29 in 10.0 mi South 4.6 mph - N/A   Clear
10:15 PM 42.3 °F 39.4 °F 18.5 °F 39% 30.29 in 10.0 mi South 4.6 mph - N/A   Clear
10:35 PM 42.4 °F 39.6 °F 18.9 °F 39% 30.29 in 10.0 mi South 4.6 mph - N/A   Clear
10:55 PM 42.1 °F 38.4 °F 19.0 °F 40% 30.29 in 10.0 mi South 5.8 mph - N/A   Clear
11:15 PM 41.2 °F 38.2 °F 19.4 °F 42% 30.29 in 10.0 mi South 4.6 mph - N/A   Clear
11:35 PM 40.6 °F 36.7 °F 19.9 °F 44% 30.28 in 10.0 mi South 5.8 mph - N/A   Clear
11:55 PM 40.3 °F 37.1 °F 20.3 °F 45% 30.28 in 10.0 mi South 4.6 mph - N/A   Clear